Location: Dissangis
(47.5967°N, 3.9826°E)
Time: 02:26:51
(UTC+00:00)

Daily predictions for brighter satellites

Satellite Brightness Start Highest point End
(mag) Time Altitude Azimuth Time Altitude Azimuth Time Altitude Azimuth
Cosmos 2263 Rocket 4.3 03:01:26 22° ENE 03:01:26 22° ENE 03:04:02 10° NE
ATLAS 3B R/B 3.6 03:30:35 39° NNE 03:31:17 40° NE 03:37:54 10° ESE
Lacrosse 4 Rocket 4.2 03:38:11 16° ESE 03:38:11 16° ESE 03:39:09 10° ESE
Cosmos 2227 Rocket 4.5 03:57:13 13° N 03:57:13 13° N 03:57:53 10° N
ALOS 3.7 03:49:48 10° NNE 03:53:16 35° ENE 03:53:16 35° ENE
NOSS 3-2 (C) 4.0 04:00:07 65° SW 04:00:07 65° SW 04:08:04 10° SSE
NOSS 3-4 (A) 3.6 04:00:50 61° SSE 04:01:18 63° SE 04:07:31 10° NE
NOSS 3-4 (C) 3.6 04:00:54 60° SSE 04:01:26 63° ESE 04:07:39 10° NE
CENTAUR R/B 3.1 04:01:35 66° WSW 04:01:37 66° WSW 04:10:21 10° SSE
Cosmos 158 Rocket 4.3 04:10:38 57° E 04:10:38 57° E 04:15:16 10° SE
SL-4 R/B 3.9 04:15:02 25° NE 04:15:02 25° NE 04:16:44 10° ENE
Cosmos 1151 Rocket 4.4 04:17:01 33° SE 04:17:01 33° SE 04:19:30 10° SSE
Cosmos 1782 4.2 04:16:34 37° ENE 04:16:39 37° ENE 04:20:24 10° SE
ATLAS 2AS CENTAUR R/B 3.2 04:15:30 23° SSW 04:20:54 72° SE 04:28:44 10° NE
Cosmos 1680 Rocket 4.0 04:20:02 42° N 04:21:35 59° ENE 04:26:50 10° SE
Cosmos 2297 Rocket 4.4 04:30:30 11° N 04:30:30 11° N 04:31:03 10° N
Atlas Centaur 2 4.5 04:26:41 13° SSW 04:28:42 14° S 04:31:47 10° SSE
ATLAS 5 CENTAUR R/B 3.8 04:31:19 20° NNE 04:31:19 20° NNE 04:32:10 10° NNE
RESURS DK-1 4.2 04:28:00 10° S 04:31:41 31° ESE 04:35:23 10° NE
ATLAS CENTAUR R/B 2.3 04:32:06 39° NE 04:32:06 39° NE 04:35:34 10° ESE
Lacrosse 5 2.0 04:32:03 58° S 04:32:49 69° SE 04:37:52 10° NE
ADEOS 3.6 04:28:53 10° NNE 04:34:09 81° ESE 04:39:23 10° SSW
Cosmos 1328 Rocket 3.6 04:35:39 75° SSE 04:35:39 75° SSE 04:39:45 10° S
Cosmos 2112 Rocket 4.2 04:38:53 32° NNW 04:41:24 73° ENE 04:46:44 10° SSE
Cosmos 2263 Rocket 2.4 04:43:11 51° NW 04:43:11 51° NW 04:48:27 10° NNE
Gbstr 26 Del rocket 3.0 04:43:34 59° SE 04:43:34 59° SE 04:46:47 10° ESE
SJ 16-02 1.4 04:45:52 62° N 04:45:52 62° N 04:49:43 10° NNE
Cosmos 1898 Rocket 4.0 04:47:35 10° S 04:52:48 61° ESE 04:58:05 10° NNE
Meteor 1-26 Rocket 4.1 04:48:59 21° NNW 04:52:55 69° W 04:58:29 10° S
FALCON 9 DEB 3.5 04:56:35 56° ESE 04:56:35 56° ESE 04:59:26 10° ENE
FALCON 9 DEB 3.5 04:56:45 57° ESE 04:56:45 57° ESE 04:59:34 10° ENE
Cosmos 1766 Rocket 4.4 04:58:04 34° NNW 04:58:04 34° NNW 05:00:49 10° N
FENGYUN 3A 3.6 04:53:41 10° N 04:59:00 57° WNW 05:04:15 10° SSW
Cosmos 1743 Rocket 4.5 04:56:08 10° SSE 05:00:25 50° E 05:04:46 10° NNE
Cosmos 1408 Rocket 3.4 04:57:54 10° S 05:02:22 84° W 05:06:51 10° N
Cosmos 2181 Rocket 3.9 04:57:57 10° NNW 05:04:02 59° W 05:10:02 10° S
COSMO-SKYMED 1 2.4 05:01:34 10° S 05:05:53 71° WSW 05:07:59 30° NNW
USA 307 3.8 05:05:08 32° NNW 05:05:53 35° N 05:09:53 10° ENE
Cosmos 1709 Rocket 4.2 05:01:09 10° SW 05:07:13 45° WNW 05:13:20 10° N
Cosmos 1937 Rocket 4.0 05:04:49 10° S 05:09:53 62° ESE 05:15:01 10° NNE
USA 308 3.9 05:11:14 31° NNW 05:12:17 35° N 05:16:16 10° ENE
Lacrosse 4 Rocket 2.8 05:14:32 23° SW 05:14:32 23° SW 05:17:09 10° SSW
Cosmos 1833 Rocket 4.5 05:09:08 10° N 05:13:49 26° NE 05:18:28 10° ESE
Meteor 2-3 Rocket 3.8 05:08:54 10° SSW 05:14:28 52° WNW 05:20:08 10° N
CZ-4C R/B 2.0 05:11:05 14° SW 05:15:31 88° NW 05:21:34 10° NE
MOS 1 Rocket 3.8 05:11:32 10° SSE 05:16:18 65° ENE 05:21:25 10° N
Cosmos 1943 4.5 05:17:53 22° WSW 05:17:53 22° WSW 05:21:10 10° SSW
CZ-4B R/B 3.0 05:13:08 10° NNE 05:17:41 82° WNW 05:22:04 10° SSW
Cosmos 1689 Rocket 2.6 05:16:04 10° S 05:18:12 42° SSW 05:18:12 42° SSW
FALCON 9 DEB 2.8 05:18:33 59° WSW 05:19:05 89° E 05:22:19 10° ENE
Meteor 1-10 Rocket 4.4 05:14:53 10° N 05:20:28 75° ENE 05:26:04 10° SSE
ATLAS 3B R/B 2.8 05:17:52 23° NW 05:22:23 65° WSW 05:29:29 10° SSE
SAR-Lupe-4 4.0 05:19:23 10° S 05:22:38 39° WSW 05:22:38 39° WSW
Aureole 2 Rocket 3.5 05:21:29 10° S 05:23:49 32° ESE 05:26:10 10° NE
Cosmos 1862 3.4 05:23:05 10° S 05:27:08 81° E 05:31:13 10° NNE
Genesis I 3.0 05:24:54 13° SW 05:28:15 85° NW 05:32:08 10° NE
YAOGAN 6 3.8 05:25:00 10° NNE 05:28:21 42° E 05:31:40 10° S
deb Chang Zheng 4 4.0 05:27:20 10° N 05:31:23 39° WNW 05:35:25 10° SW
ALOS 3.1 05:27:32 10° N 05:31:28 27° WNW 05:31:45 27° WNW
Cosmos 858 Rocket 4.4 05:28:57 10° SSW 05:34:10 86° WNW 05:39:28 10° NNE
Cosmos 990 Rocket 4.1 05:30:24 10° SW 05:35:32 55° WNW 05:40:44 10° NNE
Cosmos 2327 Rocket 4.5 05:29:33 10° S 05:35:39 86° E 05:41:46 10° N
Cosmos 2074 Rocket 3.9 05:30:56 10° SSW 05:37:05 65° WNW 05:43:16 10° N
PSLV R/B 4.0 05:33:21 10° NNE 05:37:14 73° ESE 05:41:00 10° S
ASTRO F (AKARI) 4.0 05:36:06 10° NNE 05:39:12 82° WNW 05:42:21 10° SSW
Meteor 1-31 Rocket 3.9 05:37:59 10° NNW 05:40:29 23° NW 05:40:29 23° NW
USA 305 3.8 05:38:55 22° NW 05:41:15 40° NNE 05:45:20 10° E
BREEZE M DEB (TANK) 3.8 05:34:03 10° SW 05:41:44 44° SSE 05:44:33 10° E
Cosmos 405 Rocket 2.5 05:39:16 10° SSW 05:42:56 76° W 05:46:43 10° N
SL-24 DEB 4.5 05:38:36 10° SSE 05:43:21 76° E 05:48:09 10° N
Cosmos 1812 2.7 05:43:09 10° NNW 05:46:56 56° W 05:50:41 10° S
EO 1 Delta rocket 3.9 05:42:15 10° S 05:47:11 57° W 05:51:45 10° NNW
Cosmos 2228 Rocket 3.1 05:45:06 10° NNW 05:49:27 58° W 05:53:46 10° S
USA 306 3.7 05:47:01 19° NW 05:49:44 41° NNE 05:53:50 10° E
Cosmos 1515 Rocket 4.4 05:46:48 14° NW 05:49:51 29° W 05:53:42 10° SSW
CENTAUR R/B 4.5 05:48:50 15° W 05:51:16 17° WSW 05:56:29 10° SW
NOSS 3-4 (A) 4.1 05:48:19 16° W 05:52:36 36° NNW 05:58:34 10° NE
Cosmos 1782 4.1 05:52:15 19° WNW 05:52:42 20° W 05:55:39 10° SW
NOSS 3-4 (C) 4.1 05:48:24 16° W 05:52:43 36° NNW 05:58:42 10° NE
SL-4 R/B 2.3 05:50:37 20° WNW 05:52:57 46° N 05:56:30 10° E
Cosmos 2184 Rocket 4.2 05:48:33 10° SSW 05:54:41 51° WNW 06:00:54 10° N
USA-17 4.3 05:51:44 10° SW 05:55:19 58° NW 05:58:23 10° NNE
USA 234 3.9 05:51:57 10° ENE 05:58:25 59° SE 06:04:50 10° SW
Cosmos 1356 4.5 05:55:21 10° S 05:58:38 48° E 06:01:57 10° NNE
FALCON 9 DEB 3.3 05:56:58 19° W 05:58:59 48° NNW 06:02:07 10° ENE
Spot 2 4.4 05:54:23 10° NNE 05:59:34 77° WNW 06:04:38 10° SSW
Cosmos 1844 Rocket 2.8 05:55:41 10° SW 06:01:13 55° WNW 06:06:49 10° NNE
FALCON 9 DEB 3.9 05:59:52 17° NW 06:02:15 41° NNE 06:05:34 10° E
Cosmos 1707 Rocket 3.6 06:02:09 10° N 06:06:31 83° ENE 06:10:50 10° S
EXPRESS MD2 4.0 06:03:36 15° WNW 06:06:50 84° SSW 06:14:47 10° ESE
MOS 1-B 4.4 06:02:39 10° NNE 06:08:31 88° WNW 06:14:19 10° SSW
COSMOS 2455 3.0 06:03:17 10° SSW 06:09:19 86° ESE 06:15:24 10° NE
RESURS DK-1 3.1 06:05:59 10° WSW 06:09:41 31° NW 06:13:26 10° NNE
BREEZE-M (TANK) 4.5 06:03:52 10° SW 06:10:21 32° SSE 06:12:56 10° E
ATLAS CENTAUR R/B 2.5 06:08:19 14° WNW 06:10:37 24° WSW 06:13:50 10° S
BREEZE-M DEB 4.3 06:02:56 12° WNW 06:11:05 41° SW 06:14:15 10° SSE
NOAA 6 4.0 06:06:31 10° N 06:11:39 74° WNW 06:16:44 10° SSW
ATLAS 2AS CENTAUR R/B 3.5 06:05:01 10° WSW 06:12:30 42° NNW 06:19:47 10° NE
ERBS 4.3 06:11:05 11° NW 06:12:59 16° N 06:15:09 10° NE
H-2A R/B 3.4 06:10:40 10° N 06:14:12 33° WNW 06:17:42 10° SW
Cosmos 1500 Rocket 4.3 06:10:34 10° SW 06:14:22 30° WNW 06:18:12 10° N
Cosmos 1844 3.8 06:09:43 10° SW 06:15:08 53° WNW 06:20:37 10° NNE
Lacrosse 5 2.4 06:11:20 10° W 06:16:06 39° NNW 06:20:53 10° NE
CZ-4B DEB 4.2 06:11:21 10° N 06:16:47 67° WNW 06:22:12 10° SSW
Cosmos 1437 Rocket 3.1 06:13:30 10° NNW 06:17:04 40° W 06:20:36 10° SSW
Cosmos 372 Rocket 3.9 06:13:31 10° SSW 06:18:35 70° WNW 06:23:41 10° NNE
Okean O Rocket 1.8 06:15:55 10° NNE 06:20:24 83° ESE 06:24:52 10° SSW
Cosmos 1242 Rocket 3.6 06:18:33 10° N 06:22:07 49° ENE 06:25:40 10° SSE
Geosat 4.2 06:17:07 10° SE 06:22:08 77° ENE 06:27:11 10° NNW
PAYLOAD B 4.2 06:17:43 10° NNE 06:23:14 72° WNW 06:28:41 10° SSW
SMAP 3.0 06:19:25 10° NNE 06:24:06 81° WNW 06:28:45 10° SSW
USA 81 4.0 06:19:23 10° S 06:24:39 82° W 06:29:58 10° N
SJ 16-02 3.3 06:23:10 10° WNW 06:24:41 11° NW 06:26:12 10° NNW
Cosmos 2263 Rocket 3.9 06:25:25 10° WNW 06:28:13 14° NNW 06:31:02 10° N
ATLAS 5 CENTAUR R/B 2.2 06:27:42 10° SSW 06:31:41 58° SE 06:36:09 10° NE
FALCON 9 DEB 3.7 06:29:26 10° W 06:32:27 37° NNW 06:35:29 10° ENE
FALCON 9 DEB 3.7 06:29:31 10° W 06:32:31 36° NNW 06:35:33 10° ENE
Sich 1 3.4 06:30:42 10° SSW 06:34:58 46° WNW 06:39:16 10° N
Cosmos 2218 Rocket 4.2 06:28:49 10° S 06:35:05 82° E 06:41:19 10° N
CZ-2C R/B 2.7 06:30:30 10° S 06:35:57 65° WSW 06:41:19 10° NNW
